Погода в Шишаках

Украина / Полтавская область     49°52′41″N   34°00′15″E
темп.,
°C
ветер,
м/с
пор.,
м/с
влажн.,
%
обл.,
%
осадки,
мм/ч
давл.,
гПа
погр.,
м
28 июня, вт
вт2800:00+18всв33740 0.0 101939
03:00+17св33790 0.0 101926
06:00+18ссв23810 0.0 101971
09:00+25ссв35695 0.0 1018498
12:00+29св34584 0.3 10171361
15:00+30ссв5650100 0.4 10162143
18:00+29св466040 0.1 10161142
21:00+23св46805 0.3 101796
29 июня, ср
ср2900:00+21всв357810 0.0 101770
03:00+19всв348861 0.0 101860
06:00+19в378790 0.0 1018163
09:00+24в456878 0.0 1018502
12:00+27в445715 0.0 10181254
15:00+28всв4451100 0.1 10181628
18:00+25в5861100 0.0 1016402
21:00+20в4966100 0.0 1017212
30 июня, чт
чт3000:00+18сз1181100 0.8 101815
03:00+16всв3679100 0.9 1018130
06:00+16в3777100 0.0 1018201
09:00+15в51091100 2.8 1019329
12:00+16вюв248838 4.6 1020200
15:00+24вюв345238 4.7 10181576
18:00+23св356135 0.0 1018472
21:00+18св410770 0.0 1018188
1 июля, пт
пт100:00+16всв36730 0.0 101985
03:00+15всв34750 0.0 102053
06:00+15св34800 0.0 102079
09:00+21св34610 0.0 1020505
12:00+25св45450 0.0 10201639
15:00+26св45430 0.0 10201997
18:00+25всв45511 0.0 10201725
21:00+20всв33678 0.0 102122
2 июля, сб
сб200:00+17всв34791 0.0 102159
03:00+15в34790 0.0 102245
06:00+16всв22796 0.0 102244
09:00+22в34569 0.0 1022491
12:00+25в33455 0.0 10221596
15:00+26всв22402 0.0 10211944
18:00+26св2244100 0.0 10211772
21:00+21всв226031 0.0 102011